Tracking 30922 objects as of 2-Jul-2025
HD Live streaming from Space Station
objects crossing your sky now

STARLINK-30918

Track STARLINK-30918 now!
10-day predictions
STARLINK-30918 is classified as:


NORAD ID: 58365
Int'l Code: 2023-177Q
Perigee: 565.4 km
Apogee: 567.0 km
Inclination: 43.0 °
Period: 95.8 minutes
Semi major axis: 6937 km
RCS: Unknown
Launch date: November 18, 2023
Source: United States (US)
Launch site: AIR FORCE EASTERN TEST RANGE (AFETR)
Your satellite tracking list
Your tracking list is empty




NASA's NSSDC Master Catalog

Two Line Element Set (TLE):
1 58365U 23177Q   25182.52821829  .00000100  00000-0  22513-4 0  9990
2 58365  43.0048 276.4125 0001183 265.8103  94.2604 15.02535422 90433
Source of the keplerian elements: AFSPC